Milford, UT

10:06 AM MST on December 04, 2016 (GMT -0700)
Milford Municipal

Weather History for KMLF - February, 2014

Change the Weather History Date:

Monday, February 10, 2014

  Actual Average Record
Temperature  
Mean Temperature 42 °F -  
Max Temperature 50 °F 40 °F 60 °F (2012)
Min Temperature 30 °F 19 °F 5 °F (2004)
Degree Days  
Heating Degree Days 23    
Moisture  
Dew Point 35 °F    
Average Humidity 79    
Maximum Humidity 100    
Minimum Humidity 42    
Precipitation  
Precipitation 0.03 in - - ()
Sea Level Pressure  
Sea Level Pressure 30.07 in    
Wind  
Wind Speed 9 mph (NNW)    
Max Wind Speed 17 mph    
Max Gust Speed 25 mph    
Visibility 10 miles    
Events Rain    
Averages and records for this station are not official NWS values.
T = Trace of Precipitation, MM = Missing Value Source: NWS Daily Summary

Daily Weather History Graph

Daily Weather History Graph

Search for Another Location

Airport or City:

Trip Planner

Search our weather history database for the weather conditions in past years. The results will help you decide how hot, cold, wet, or windy it might be!

Date:

Astronomy

Feb. 10, 2014 Rise Set
Actual Time 7:28 AM MST 6:04 PM MST
Civil Twilight 7:00 AM MST 6:32 PM MST
Nautical Twilight 6:29 AM MST 7:03 PM MST
Astronomical Twilight 5:58 AM MST 7:34 PM MST
Moon 2:38 PM MST (2/10) 4:23 AM MST (2/10)
Length of Visible Light 11h 31m
Length of Day
10h 36m
Waxing Gibbous, 85% of the Moon is Illuminated
Feb 10
Waxing Gibbous
Feb 14
Full
Feb 22
Last Quarter
Mar 1
New
Mar 8
First Quarter

Hourly Weather History & Observations

Time (MST) Temp. Windchill Dew Point Humidity Pressure Visibility Wind Dir Wind Speed Gust Speed Precip Events Conditions
12:52 AM 37.9 °F - 37.9 °F 100% 29.97 in 5.0 mi Calm Calm - 0.02 in   Overcast
1:52 AM 37.9 °F 30.9 °F 37.0 °F 97% 29.92 in 9.0 mi SW 10.4 mph - 0.01 in   Overcast
2:52 AM 39.0 °F 31.0 °F 37.0 °F 93% 29.93 in 10.0 mi SSW 13.8 mph - N/A   Clear
3:52 AM 37.9 °F 30.0 °F 35.1 °F 89% 29.93 in 10.0 mi SSW 12.7 mph - N/A   Clear
4:52 AM 37.9 °F 29.6 °F 33.1 °F 83% 29.93 in 10.0 mi SSW 13.8 mph - N/A   Clear
5:52 AM 39.0 °F 32.3 °F 33.1 °F 79% 29.95 in 10.0 mi SSW 10.4 mph 19.6 mph N/A   Partly Cloudy
6:52 AM 37.9 °F 30.9 °F 34.0 °F 86% 30.00 in 10.0 mi North 10.4 mph - 0.00 in   Scattered Clouds
7:52 AM 36.0 °F 31.1 °F 34.0 °F 93% 30.03 in 10.0 mi NNE 5.8 mph - N/A   Clear
8:52 AM 41.0 °F 37.1 °F 37.9 °F 89% 30.03 in 10.0 mi West 5.8 mph - N/A   Clear
9:52 AM 45.0 °F 41.2 °F 39.0 °F 80% 30.05 in 10.0 mi East 6.9 mph - N/A   Clear
10:52 AM 46.9 °F - 37.9 °F 71% 30.07 in 10.0 mi North 13.8 mph - N/A   Overcast
11:52 AM 46.0 °F 39.6 °F 37.9 °F 73% 30.10 in 10.0 mi North 15.0 mph - N/A   Overcast
12:52 PM 48.9 °F - 34.0 °F 56% 30.09 in 10.0 mi NE 17.3 mph 25.3 mph N/A   Mostly Cloudy
1:52 PM 50.0 °F - 34.0 °F 54% 30.08 in 10.0 mi NE 17.3 mph 25.3 mph N/A   Mostly Cloudy
2:52 PM 48.9 °F - 34.0 °F 56% 30.08 in 10.0 mi NNE 15.0 mph - N/A   Overcast
3:52 PM 44.1 °F 38.1 °F 37.0 °F 76% 30.12 in 10.0 mi NNW 11.5 mph - 0.00 in Rain Light Rain
4:52 PM 45.0 °F 38.9 °F 37.0 °F 74% 30.12 in 10.0 mi North 12.7 mph - 0.00 in   Mostly Cloudy
5:52 PM 43.0 °F 36.8 °F 35.1 °F 74% 30.14 in 10.0 mi North 11.5 mph - N/A   Scattered Clouds
6:52 PM 39.0 °F 31.8 °F 33.1 °F 79% 30.17 in 10.0 mi NNW 11.5 mph - N/A   Scattered Clouds
7:52 PM 39.9 °F 34.5 °F 34.0 °F 79% 30.19 in 10.0 mi North 8.1 mph - N/A   Overcast
8:52 PM 37.9 °F 30.9 °F 33.1 °F 83% 30.18 in 10.0 mi NNW 10.4 mph - N/A   Mostly Cloudy
9:52 PM 37.0 °F 29.3 °F 33.1 °F 86% 30.18 in 10.0 mi NNW 11.5 mph - N/A   Scattered Clouds
10:52 PM 34.0 °F 28.8 °F 30.9 °F 89% 30.18 in 10.0 mi NNW 5.8 mph - N/A   Clear
11:52 PM 30.0 °F - 28.9 °F 96% 30.20 in 10.0 mi Calm Calm - N/A   Clear